Overview Statistics Trail Chart Weather Telemetry Raw packets
 

This is the latest recevied weather packets stored in our database for station/object SV9TNF-56. If no packets are shown the sender has not sent any weather packets the latest 10 day(s).

<< 58 59 60 61 62 63 64 >>
Time Temp. Humidity Pressure Rain* Wind** Luminosity Snow
1788268098 26.67° C 57% 1010.8 hPa 0 mm 13.86 m/s, 162° - -
1788267798 26.67° C 59% 1010.8 hPa 0 mm 17.88 m/s, 126° - -
1788267497 26.67° C 54% 1010.8 hPa 0 mm 14.75 m/s, 222° - -
1788267197 26.11° C 60% 1010.8 hPa 0 mm 8.94 m/s, 336° - -
1788266897 26.11° C 59% 1010.8 hPa 0 mm 12.96 m/s, 36° - -
1788266597 26.11° C 59% 1010.8 hPa 0 mm 12.07 m/s, 138° - -
1788266297 26.67° C 56% 1010.8 hPa 0 mm 21.9 m/s, 64° - -
1788265997 26.67° C 52% 1010.5 hPa 0 mm 31.74 m/s, 101° - -
1788265697 26.67° C 51% 1010.8 hPa 0 mm 25.48 m/s, 126° - -
1788265397 26.67° C 52% 1010.8 hPa 0 mm 25.93 m/s, 73° - -
1788265097 27.22° C 50% 1010.8 hPa 0 mm 19.22 m/s, 168° - -
1788264799 26.67° C 55% 1011.2 hPa 0 mm 12.07 m/s, 209° - -
1788264496 27.22° C 57% 1011.2 hPa 0 mm 16.54 m/s, 120° - -
1788264196 27.22° C 54% 1010.8 hPa 0 mm 12.52 m/s, 272° - -
1788263896 27.22° C 52% 1011.2 hPa 0 mm 15.2 m/s, 145° - -
1788263596 27.22° C 55% 1011.2 hPa 0 mm 16.99 m/s, 131° - -
1788263296 27.22° C 55% 1011.2 hPa 0 mm 12.52 m/s, 211° - -
1788262996 26.67° C 56% 1011.2 hPa 0 mm 4.47 m/s, 236° - -
1788262696 26.67° C 59% 1011.2 hPa 0 mm 5.36 m/s, 119° - -
1788262396 26.67° C 61% 1011.5 hPa 0 mm 12.96 m/s, 126° - -
1788262096 26.67° C 58% 1011.5 hPa 0 mm 12.07 m/s, 67° - -
1788261795 26.67° C 61% 1011.2 hPa 0 mm 8.94 m/s, 109° - -
1788261496 26.67° C 61% 1011.5 hPa 0 mm 10.28 m/s, 246° - -
1788261195 26.67° C 58% 1011.5 hPa 0 mm 15.2 m/s, 113° - -
1788260895 26.67° C 58% 1011.2 hPa 0 mm 15.2 m/s, 170° - -

* Rain latest hour (hover to see other rain measurements)
** Current wind speed in m/s (hover to see current wind gust speed)